铱星星座 136星 (IRIDIUM 136)

导读 | 豆包AI

IRIDIUM 136(铱星136)是美国铱星卫星系统中的一颗低地球轨道通信卫星,于2017年10月9日发射升空。铱星系统由美国设计构建,作为全球覆盖的低轨卫星通信网络,为全球任意地点提供语音通信、数据传输等无缝移动通信服务。IRIDIUM 136运行在约780公里高度的近极圆轨道,延续铱星技术特点,具备星上处理与交换能力,为全球无缝覆盖通信提供支撑。

Basic Information
目录编号:
42962
目录名称:
IRIDIUM 136
国际标识:
2017-061H
轨道中心:
EARTH
卫星名称:
铱星星座 136星
卫星全名:
铱星星座 136星 (IRIDIUM 136)
卫星状态:
在轨 (已飞行3078 天)
发射日期:
2017-10-09 UTC
国别 :
美国 (US)
星等 :
--
Orbit Information
数据来源 国际轨道数据 AOE轨道数据
星历时间 2026-03-13T17:23:55+0800
17小时前
查看轨道信息
2026-03-12T05:00:00+0800
2天前
查看轨道信息
半长轴 7155.805km 7155.803km
偏心率 0.0002119 0.0002008
轨道倾角 86.392° 86.393°
近地点辐角 87.055° 89.132°
升交点赤经 65.299° 65.935°
平近点角 273.089° 5.451°
近地点 776.151km 776.229km
远地点 779.185km 779.103km
周期 100.403分钟 100.403分钟
每日圈数 14.342177 14.342182
Detailed Information
平衡模式:
三轴稳定
覆盖范围:
全球
运营商:
铱星通信公司
运营商所在国:
美国
制造商(研发单位):
阿莱尼亚宇航公司
制造商所在国:
意大利
使用方式:
暂无
Satellite Introduction
铱星(Iridium)是由共66个运作中的通信卫星组成的卫星通信系统。这个系统原本规划77个通信卫星,所以用原子序数为77的铱元素来命名。铱卫星允许人们使用手持型电子设备进行全球性的语音及数据通讯。该卫星仍在工作。
2D Orbit Map
3D Orbit Map
Orbit Altitude Analysis Chart
Orbit Inclination Analysis Chart
Orbit Comprehensive Analysis Chart
View Comprehensive Chart